STARLINK-11508, 62515

Orbit data source: Space-Track

STARLINK-11508, 62515 is a payload satellite owned by SpaceX/Seattle (US) in LEO that was launched on Wed, 08 Jan 2025 UTC via an FALCON 9 launch vehicle from the Air Force Eastern Test Range (AFETR). Payload-class satellites include a variety of spacecraft equipped with specific instruments for various scientific and technological missions. These include communications satellites like Starlink; space stations such as the ISS; scientific satellites like the Hubble; Earth observation satellites from companies like Planet Labs, Umbra, and HawkEye 360; GPS; miniature CubeSats for education and research; and military/defense satellites.

Loading next visibility...
Identifier
62515, 2025-004E
Orbit
LEO
Country
Flag of USUS
Related business
Manufacturer
SpaceX/Seattle
Mission
Operational Commercial Communications
Bus & Motor
STARLINK V2MD, Unknown motor
Mass
960 kg wet, ~910 kg dry
Launch date (UTC)
2025-01-08 (2 years ago)
Launch vehicle
FALCON 9
Launch site
Air Force Eastern Test Range (AFETR)
Object type
Payload
Rocket body
Debris
Shape & HBR
Box + 2 Pan, 18.1 m
Radar Cross Section
36.964 m², Large (>1 m²)

Expand to show TLE details & history
Last TLE update: 10 hours ago

TLE from 10 hours ago
0 STARLINK-11508
1 62515U 25004E   26254.75402470  .00182838  00000-0  13951-2 0  9999
2 62515  43.0004  29.0134 0001560 279.3702  80.6989 15.70877367 96470
Epoch: 2026-09-11T18:05Z
TLE epoch observation values (Epoch: 2026-09-11T18:05:47.734Z)
Latitude
-0.00002°
Longitude
126.79164°
Altitude
355.99 km
Speed
7.698 km/s
True Right ascension
01h 56m 03s
True Declination
0° 00' 00"
Sunlit
Object was in full shadow at epoch
Visualization orbit readout
Latitude
Unknown
Longitude
Unknown
Altitude
Unknown
Speed
Unknown
Apparent Right ascension
Unknown
Apparent Declination
Unknown
Sunlit
N/A
Visualization observer readout
Local Sidereal Time
20:07:20
Azimuth
Unknown
Elevation
Unknown
Doppler factor
Unknown
Orbital elements
Apogee altitude
359.421 km
Perigee altitude
357.319 km
Semi-major axis
6,736.507 km
Eccentricity
0.00016
Inclination
43.0004°
RAAN
29.0134°
Arg. of periapsis
279.3702°
True anomaly
80.71654°
Mean anomaly
80.6989°
Eccentric anomaly
80.70772°
Mean motion
3.92546 °/min
Orbital period
91.71 mins
BSTAR
0.0013951
Loading maneuver chart data...
Computing Atmospheric mass density...
Loading historical data...
Loading historical data...
Loading historical data...
Loading historical data...
Loading historical data...
Loading historical data...
Loading historical data...

Documentation

Showing up to 5 results
|